Location: Barrio Las Umbrías
(40.4173°N, 4.8685°W)
Time: 13:42:10
(UTC+00:00)

Resurs 01 Rocket - Pass Details

Date: 17 August 2022
Orbit: 634 x 643 km, 97.9° (Epoch: 27 September)

Event Time Altitude Azimuth Distance (km) Brightness Sun altitude
Exits shadow 19:50:25 - 118° (ESE) 2,116 3.6 -7.2°
Reaches altitude 10° 19:50:42 10° 116° (ESE) 2,027 3.5 -7.3°
Maximum altitude 19:54:01 21° 67° (ENE) 1,432 3.1 -7.9°
Drops below altitude 10° 19:57:20 10° 18° (NNE) 2,033 4.3 -8.4°
Sets 19:59:57 0° 3° (N) 2,945 5.4 -8.9°
